Date String (YYYY-MM-DD hh:mm:ss) UTC,Instrument flags,Ambient pressure (hPa),Sample flow (lpm),Bypass flow (lpm),Sample temperature (°C),Ambient temperature (°C),ASC tube jacket temperature (°C),LED temperature (°C),Box temperature (°C),Sample RH (%),Span deviation,Mass concentration (μg/m³),Mass concentration (μg/m³),Mass concentration (μg/m³)
DateTimeUTC,F1_M11,P_M11,Q1_M11,Q2_M11,T1_M11,T2_M11,T3_M11,T4_M11,T5_M11,U1_M11,ZSPAN_M11,X0_M11,X2_M11,X1_M11
2023-05-05 04:00:00,,0825.1,5.00,0.00,30.4,29.0,00.0,38.8,31.9,19.2,0000.0,0015.08,0004.11,0002.11
2023-05-05 04:01:00,,0825.1,4.99,0.00,30.4,29.0,00.0,38.8,31.9,19.2,0000.0,0014.22,0004.09,0002.12
2023-05-05 04:02:00,,0825.1,5.00,0.00,30.4,29.0,00.0,38.8,32.0,18.9,0000.0,0013.59,0004.17,0002.13
2023-05-05 04:03:00,,0825.1,5.01,0.00,30.4,29.0,00.0,38.8,32.0,19.0,0000.0,0013.79,0004.17,0002.12
2023-05-05 04:04:00,,0825.1,5.00,0.00,30.4,29.0,00.0,38.8,31.9,18.9,0000.0,0014.12,0004.14,0002.11
2023-05-05 04:05:00,,0825.1,5.00,0.00,30.4,29.0,00.0,38.8,31.9,18.8,0000.0,0013.87,0004.16,0002.12
2023-05-05 04:06:00,,0825.1,4.99,0.00,30.4,28.9,00.0,38.8,31.9,18.7,0000.0,0013.53,0004.20,0002.15
2023-05-05 04:07:00,,0825.1,5.01,0.00,30.4,28.9,00.0,38.8,31.9,18.6,0000.0,0013.31,0004.16,0002.15
2023-05-05 04:08:00,,0825.1,5.01,0.00,30.4,28.9,00.0,38.8,31.9,18.5,0000.0,0012.24,0004.16,0002.16
2023-05-05 04:09:00,,0825.1,5.00,0.00,30.4,28.9,00.0,38.8,31.9,18.5,0000.0,0012.07,0004.18,0002.17
2023-05-05 04:10:00,,0825.1,5.00,0.00,30.4,28.9,00.0,38.8,31.9,18.6,0000.0,0012.06,0004.15,0002.16
2023-05-05 04:11:00,,0825.1,4.99,0.00,30.4,28.9,00.0,38.8,31.9,18.7,0000.0,0012.06,0004.14,0002.15
2023-05-05 04:12:00,,0825.0,4.99,0.00,30.4,28.9,00.0,38.8,31.8,18.7,0000.0,0011.94,0004.13,0002.13
2023-05-05 04:13:00,,0825.0,5.01,0.00,30.4,28.9,00.0,38.8,31.8,18.7,0000.0,0011.61,0004.09,0002.13
2023-05-05 04:14:00,,0825.1,5.01,0.00,30.5,28.9,00.0,38.8,31.8,18.7,0000.0,0011.82,0004.10,0002.14
2023-05-05 04:15:00,,0825.1,4.99,0.00,30.4,28.9,00.0,38.8,31.8,18.8,0000.0,0011.19,0004.13,0002.13
2023-05-05 04:16:00,,0825.1,5.00,0.00,30.4,28.9,00.0,38.8,31.8,18.9,0000.0,0011.52,0004.11,0002.12
2023-05-05 04:17:00,,0825.1,4.99,0.00,30.5,28.9,00.0,38.8,31.7,18.9,0000.0,0011.72,0004.03,0002.09
2023-05-05 04:18:00,,0825.0,5.00,0.00,30.4,28.9,00.0,38.8,31.8,18.9,0000.0,0011.69,0003.99,0002.08
2023-05-05 04:19:00,,0825.1,5.01,0.00,30.4,28.9,00.0,38.8,31.9,19.0,0000.0,0011.49,0003.93,0002.07
2023-05-05 04:20:00,,0825.1,4.99,0.00,30.4,28.9,00.0,38.9,31.8,19.1,0000.0,0011.54,0003.94,0002.07
2023-05-05 04:21:00,,0825.1,4.99,0.00,30.4,28.9,00.0,38.9,31.8,19.0,0000.0,0012.06,0004.00,0002.06
2023-05-05 04:22:00,,0825.1,5.01,0.00,30.4,28.9,00.0,38.9,31.8,19.1,0000.0,0011.93,0004.02,0002.04
2023-05-05 04:23:00,,0825.2,5.01,0.00,30.4,28.9,00.0,38.9,31.8,19.1,0000.0,0011.55,0004.01,0002.03
2023-05-05 04:24:00,,0825.2,4.99,0.00,30.4,28.9,00.0,38.9,31.8,19.1,0000.0,0011.48,0003.98,0002.02
2023-05-05 04:25:00,,0825.1,5.00,0.00,30.4,28.9,00.0,38.9,31.8,19.0,0000.0,0011.01,0003.94,0002.00
2023-05-05 04:26:00,,0825.2,5.01,0.00,30.4,28.9,00.0,38.9,31.8,19.0,0000.0,0010.61,0003.88,0002.00
2023-05-05 04:27:00,,0825.2,5.00,0.00,30.4,28.9,00.0,38.9,31.8,19.0,0000.0,0010.20,0003.85,0002.01
2023-05-05 04:28:00,,0825.2,5.00,0.00,30.4,28.9,00.0,38.9,31.9,19.1,0000.0,0009.92,0003.89,0002.02
2023-05-05 04:29:00,,0825.3,4.99,0.00,30.4,28.9,00.0,38.9,31.8,19.2,0000.0,0010.13,0003.93,0002.03
2023-05-05 04:30:00,,0825.2,4.99,0.00,30.4,28.9,00.0,38.9,31.8,19.3,0000.0,0010.26,0003.95,0002.01
2023-05-05 04:31:00,,0825.2,5.01,0.00,30.4,28.9,00.0,38.9,31.9,19.3,0000.0,0010.29,0003.94,0002.00
2023-05-05 04:32:00,,0825.2,5.00,0.00,30.5,28.9,00.0,38.9,31.9,19.5,0000.0,0010.00,0003.92,0002.00
2023-05-05 04:33:00,,0825.1,5.01,0.00,30.5,28.9,00.0,38.9,31.9,19.5,0000.0,0010.30,0003.93,0002.01
2023-05-05 04:34:00,,0825.2,5.00,0.00,30.5,28.9,00.0,38.9,31.9,19.5,0000.0,0010.51,0003.95,0002.01
2023-05-05 04:35:00,,0825.2,4.99,0.00,30.5,28.9,00.0,38.9,31.9,19.4,0000.0,0010.84,0003.96,0002.03
2023-05-05 04:36:00,,0825.2,5.00,0.00,30.5,29.0,00.0,38.9,32.0,19.4,0000.0,0010.92,0003.98,0002.03
2023-05-05 04:37:00,,0825.2,5.01,0.00,30.5,29.0,00.0,38.9,32.0,19.3,0000.0,0011.02,0003.97,0002.03
2023-05-05 04:38:00,,0825.2,5.00,0.00,30.5,29.0,00.0,38.9,32.0,19.4,0000.0,0010.90,0003.92,0002.01
2023-05-05 04:39:00,,0825.2,4.99,0.00,30.5,29.0,00.0,38.9,32.0,19.5,0000.0,0010.88,0003.89,0002.01
2023-05-05 04:40:00,,0825.3,5.01,0.00,30.5,29.0,00.0,38.9,32.0,19.6,0000.0,0010.44,0003.85,0002.01
2023-05-05 04:41:00,,0825.3,5.01,0.00,30.5,29.0,00.0,38.9,32.0,19.5,0000.0,0010.20,0003.82,0002.01
2023-05-05 04:42:00,,0825.3,4.98,0.00,30.5,29.0,00.0,38.9,32.0,19.4,0000.0,0010.06,0003.81,0002.02
2023-05-05 04:43:00,,0825.3,4.99,0.00,30.5,29.1,00.0,38.9,32.0,19.3,0000.0,0009.90,0003.80,0002.03
2023-05-05 04:44:00,,0825.2,5.02,0.00,30.5,29.1,00.0,38.9,32.0,19.3,0000.0,0009.14,0003.71,0002.02
2023-05-05 04:45:00,,0825.3,4.99,0.00,30.5,29.1,00.0,38.9,32.0,19.1,0000.0,0008.83,0003.70,0002.03
2023-05-05 04:46:00,,0825.3,4.99,0.00,30.5,29.1,00.0,38.9,32.0,18.9,0000.0,0008.57,0003.69,0002.01
2023-05-05 04:47:00,,0825.3,5.02,0.00,30.5,29.1,00.0,38.9,32.1,19.0,0000.0,0008.77,0003.68,0002.01
2023-05-05 04:48:00,,0825.3,5.00,0.00,30.5,29.1,00.0,38.9,32.1,19.2,0000.0,0009.48,0003.77,0002.04
2023-05-05 04:49:00,,0825.4,4.99,0.00,30.6,29.1,00.0,38.9,32.1,19.2,0000.0,0010.57,0003.90,0002.09
2023-05-05 04:50:00,,0825.3,5.02,0.00,30.6,29.1,00.0,39.0,32.1,19.2,0000.0,0012.19,0004.03,0002.14
2023-05-05 04:51:00,,0825.4,5.01,0.00,30.6,29.1,00.0,39.0,32.1,19.2,0000.0,0013.66,0004.17,0002.18
2023-05-05 04:52:00,,0825.4,4.99,0.00,30.5,29.1,00.0,39.0,32.1,19.2,0000.0,0014.68,0004.30,0002.23
2023-05-05 04:53:00,,0825.4,5.00,0.00,30.6,29.1,00.0,39.0,32.1,19.2,0000.0,0015.77,0004.51,0002.29
2023-05-05 04:54:00,,0825.4,5.02,0.00,30.6,29.1,00.0,39.0,32.1,19.2,0000.0,0017.54,0004.68,0002.32
2023-05-05 04:55:00,,0825.3,4.99,0.00,30.6,29.1,00.0,39.0,32.1,19.2,0000.0,0018.50,0004.87,0002.37
2023-05-05 04:56:00,,0825.3,4.99,0.00,30.6,29.1,00.0,39.0,32.1,19.2,0000.0,0018.94,0004.96,0002.40
2023-05-05 04:57:00,,0825.3,5.00,0.00,30.6,29.1,00.0,39.0,32.1,19.1,0000.0,0019.51,0005.03,0002.43
2023-05-05 04:58:00,,0825.3,5.01,0.00,30.6,29.1,00.0,39.0,32.1,19.1,0000.0,0020.53,0005.17,0002.48
2023-05-05 04:59:00,,0825.3,5.00,0.00,30.6,29.1,00.0,39.0,32.1,19.2,0000.0,0021.22,0005.22,0002.51
